Location: *
(58.4167°N, 22.5000°E)
Time: 14:33:43
(UTC+00:00)

IGS 5A - Pass Details

Date: 22 September 2019
Orbit: 583 x 589 km, 97.6° (Epoch: 27 September)

Event Time Altitude Azimuth Distance (km) Brightness Sun altitude
Exits shadow 19:50:26 74° 258° (WSW) 618 3.5 -24.2°
Drops below altitude 10° 19:54:36 10° 342° (NNW) 1,925 7.0 -24.5°
Sets 19:56:46 0° 344° (NNW) 2,829 8.0 -24.7°
